Location: Newark
(34.1333°N, 7.9667°W)
Time: 14:53:10
(UTC+00:00)

JUGNU - Pass Details

Date: 11 June 2023
Orbit: 835 x 862 km, 20.0° (Epoch: 22 September)

Event Time Altitude Azimuth Distance (km) Brightness Sun altitude
Rises 21:18:16 0° 225° (SW) 3,404 ? -16.6°
Reaches altitude 10° 21:21:58 10° 202° (SSW) 2,464 ? -17.2°
Enters shadow 21:23:48 14° 185° (S) 2,190 ? -17.4°
